Volver al catálogo

COSMOS 1275 DEB

ActivoPO
NORAD 15542·DEBRIS·🇷🇺 Russia

Lanzado Jun 4, 1981 desde Plesetsk Cosmodrome

Loading…

Próximos Pases (próximas 24 horas)

TLE

ActualizadoSource: Space-Track

Época: Sep 14, 2026, 06:06 UTC

1 15542U 81053KA  26257.25485389  .00000589  00000-0  52076-3 0  9995
2 15542  83.0060 358.4101 0072071 104.6871 284.8784 13.82223174239055

Sigue COSMOS 1275 DEB en tiempo real con AllMySat

Download on the App Store